Weather History for Big Rapids, MI

Change the Weather History Date:

Monday, May 6, 2013

  Actual Average Record
Temperature  
Mean Temperature 59 °F -  
Max Temperature 77 °F 65 °F 84 °F (2000)
Min Temperature 41 °F 38 °F 25 °F (1989)
Degree Days  
Heating Degree Days 6    
Growing Degree Days 9 (Base 50)    
Moisture  
Dew Point 33 °F    
Average Humidity 48    
Maximum Humidity 93    
Minimum Humidity 10    
Precipitation  
Precipitation 0.00 in - - ()
Sea Level Pressure  
Sea Level Pressure 30.03 in    
Wind  
Wind Speed 2 mph (ENE)    
Max Wind Speed 12 mph    
Max Gust Speed 23 mph    
Visibility 10 miles    
Events      
Averages and records for this station are not official NWS values.
T = Trace of Precipitation, MM = Missing Value Source: NWS Daily Summary

Daily Weather History Graph

Daily Weather History Graph

Search for Another Location

Airport:

Trip Planner

Search our weather history database for the weather conditions in past years. The results will help you decide how hot, cold, wet, or windy it might be!

Date:

Astronomy

May. 06, 2013 Rise Set
Actual Time 6:27 AM EDT 8:50 PM EDT
Civil Twilight 5:55 AM EDT 9:23 PM EDT
Nautical Twilight 5:15 AM EDT 10:03 PM EDT
Astronomical Twilight 4:30 AM EDT 10:48 PM EDT
Moon 4:35 AM EDT (5/6) 5:45 PM EDT (5/6)
Length of Visible Light 15h 27m
Length of Day
14h 23m
Waning Crescent, 11% of the Moon is Illuminated
May 6
Waning Crescent
May 9
New
May 18
First Quarter
May 25
Full
May 31
Last Quarter

Hourly Weather History & Observations

Time (EDT) Temp. Dew Point Humidity Pressure Visibility Wind Dir Wind Speed Gust Speed Precip Events Conditions
12:15 AM 47.3 °F 41.0 °F 79% 30.06 in 10.0 mi Calm Calm - N/A   Clear
12:35 AM 48.0 °F 39.9 °F 74% 30.06 in 10.0 mi Calm Calm - N/A   Clear
12:54 AM 46.0 °F 38.8 °F 76% 30.06 in 10.0 mi Calm Calm - N/A   Clear
1:15 AM 45.3 °F 40.3 °F 83% 30.06 in 10.0 mi Calm Calm - N/A   Clear
1:35 AM 44.4 °F 39.9 °F 84% 30.06 in 10.0 mi Calm Calm - N/A   Clear
1:54 AM 44.2 °F 39.0 °F 82% 30.06 in 10.0 mi Calm Calm - N/A   Clear
2:35 AM 42.8 °F 39.9 °F 90% 30.06 in 10.0 mi Calm Calm - N/A   Clear
2:55 AM 42.4 °F 39.4 °F 89% 30.06 in 10.0 mi Calm Calm - N/A   Clear
3:15 AM 42.4 °F 39.9 °F 91% 30.05 in 10.0 mi Calm Calm - N/A   Clear
3:35 AM 44.1 °F 40.6 °F 88% 30.05 in 10.0 mi Calm Calm - N/A   Clear
3:55 AM 43.3 °F 40.1 °F 88% 30.05 in 10.0 mi Calm Calm - N/A   Clear
4:15 AM 43.5 °F 40.1 °F 88% 30.05 in 10.0 mi Calm Calm - N/A   Clear
4:35 AM 42.8 °F 39.7 °F 89% 30.05 in 10.0 mi Calm Calm - N/A   Clear
4:55 AM 42.3 °F 39.4 °F 90% 30.05 in 10.0 mi Calm Calm - N/A   Clear
5:15 AM 41.9 °F 39.4 °F 91% 30.05 in 10.0 mi Calm Calm - N/A   Clear
5:35 AM 41.5 °F 39.4 °F 92% 30.05 in 10.0 mi Calm Calm - N/A   Clear
5:55 AM 41.4 °F 39.4 °F 93% 30.06 in 10.0 mi Calm Calm - N/A   Clear
6:15 AM 41.0 °F 39.2 °F 93% 30.06 in 10.0 mi Calm Calm - N/A   Clear
6:35 AM 41.0 °F 39.2 °F 93% 30.06 in 10.0 mi Calm Calm - N/A   Clear
6:55 AM 41.4 °F 39.6 °F 93% 30.06 in 10.0 mi Calm Calm - N/A   Clear
7:15 AM 42.8 °F 41.0 °F 93% 30.07 in 10.0 mi Calm Calm - N/A   Clear
7:34 AM 44.2 °F 41.7 °F 91% 30.07 in 10.0 mi Calm Calm - N/A   Clear
7:55 AM 47.1 °F 43.0 °F 86% 30.08 in 10.0 mi Calm Calm - N/A   Clear
8:15 AM 50.7 °F 42.1 °F 72% 30.08 in 10.0 mi Calm Calm - N/A   Clear
8:34 AM 54.1 °F 40.5 °F 60% 30.08 in 10.0 mi WNW 5.8 mph - N/A   Clear
8:55 AM 56.7 °F 40.1 °F 54% 30.08 in 10.0 mi WNW 8.1 mph - N/A   Clear
9:15 AM 59.0 °F 40.3 °F 50% 30.08 in 10.0 mi NNW 3.5 mph - N/A   Clear
9:35 AM 61.0 °F 40.5 °F 47% 30.07 in 10.0 mi NW 5.8 mph - N/A   Clear
9:55 AM 64.0 °F 40.3 °F 42% 30.08 in 10.0 mi NNW 3.5 mph - N/A   Clear
10:15 AM 67.1 °F 39.9 °F 37% 30.08 in 10.0 mi Calm Calm - N/A   Clear
10:35 AM 68.7 °F 39.4 °F 34% 30.07 in 10.0 mi Calm Calm - N/A   Clear
10:55 AM 70.7 °F 38.7 °F 31% 30.07 in 10.0 mi NE 5.8 mph - N/A   Clear
11:14 AM 72.5 °F 36.0 °F 26% 30.07 in 10.0 mi NE 9.2 mph - N/A   Clear
11:35 AM 73.2 °F 36.5 °F 26% 30.06 in 10.0 mi NNE 8.1 mph - N/A   Clear
11:55 AM 73.4 °F 32.0 °F 22% 30.06 in 10.0 mi East 8.1 mph - N/A   Clear
12:14 PM 74.8 °F 31.6 °F 21% 30.05 in 10.0 mi East 4.6 mph - N/A   Clear
12:35 PM 75.9 °F 29.7 °F 18% 30.05 in 10.0 mi ESE 8.1 mph - N/A   Clear
12:55 PM 75.9 °F 23.9 °F 14% 30.04 in 10.0 mi East 5.8 mph 23.0 mph N/A   Clear
1:15 PM 75.9 °F 25.5 °F 15% 30.04 in 10.0 mi East 9.2 mph 16.1 mph N/A   Clear
1:35 PM 75.9 °F 21.4 °F 13% 30.03 in 10.0 mi ENE 9.2 mph - N/A   Clear
1:54 PM 76.6 °F 21.9 °F 13% 30.03 in 10.0 mi ESE 9.2 mph - N/A   Clear
2:15 PM 77.4 °F 19.8 °F 12% 30.03 in 10.0 mi ESE 5.8 mph 18.4 mph N/A   Clear
2:35 PM 77.2 °F 19.6 °F 12% 30.02 in 10.0 mi East 11.5 mph - N/A   Clear
2:54 PM 77.2 °F 24.3 °F 14% 30.01 in 10.0 mi ESE 11.5 mph 16.1 mph N/A   Clear
3:15 PM 77.2 °F 23.2 °F 13% 30.01 in 10.0 mi East 9.2 mph 17.3 mph N/A   Clear
3:35 PM 77.5 °F 25.9 °F 15% 30.00 in 10.0 mi East 3.5 mph - N/A   Clear
3:54 PM 77.7 °F 27.5 °F 16% 29.99 in 10.0 mi NE 8.1 mph - N/A   Clear
4:15 PM 77.9 °F 21.9 °F 12% 29.98 in 10.0 mi East 8.1 mph - N/A   Clear
4:35 PM 77.9 °F 21.0 °F 12% 29.98 in 10.0 mi East 9.2 mph - N/A   Clear
4:54 PM 77.4 °F 20.5 °F 12% 29.98 in 10.0 mi East 9.2 mph - N/A   Clear
5:15 PM 77.2 °F 18.7 °F 11% 29.98 in 10.0 mi East 5.8 mph 17.3 mph N/A   Clear
5:35 PM 76.6 °F 19.2 °F 12% 29.98 in 10.0 mi ESE 8.1 mph 16.1 mph N/A   Clear
5:55 PM 76.1 °F 20.8 °F 13% 29.97 in 10.0 mi East 6.9 mph - N/A   Clear
6:15 PM 75.4 °F 19.4 °F 12% 29.98 in 10.0 mi East 5.8 mph - N/A   Clear
6:55 PM 74.8 °F 17.8 °F 12% 29.98 in 10.0 mi East 4.6 mph - N/A   Clear
7:15 PM 74.5 °F 13.8 °F 10% 29.98 in 10.0 mi ENE 5.8 mph - N/A   Clear
7:34 PM 73.9 °F 14.9 °F 11% 29.98 in 10.0 mi East 4.6 mph - N/A   Clear
7:55 PM 73.0 °F 17.1 °F 12% 29.98 in 10.0 mi East 3.5 mph - N/A   Clear
8:15 PM 71.8 °F 19.8 °F 14% 29.98 in 10.0 mi ESE 6.9 mph - N/A   Clear
8:34 PM 70.7 °F 24.4 °F 18% 29.99 in 10.0 mi ESE 4.6 mph - N/A   Clear
8:55 PM 69.8 °F 24.1 °F 18% 29.99 in 10.0 mi Calm Calm - N/A   Clear
9:15 PM 62.4 °F 35.8 °F 37% 30.00 in 10.0 mi Calm Calm - N/A   Clear
9:34 PM 59.4 °F 40.1 °F 49% 30.00 in 10.0 mi Calm Calm - N/A   Clear
9:55 PM 57.2 °F 39.9 °F 52% 30.01 in 10.0 mi Calm Calm - N/A   Clear
10:15 PM 55.9 °F 39.9 °F 55% 30.01 in 10.0 mi Calm Calm - N/A   Clear
10:34 PM 54.5 °F 38.8 °F 56% 30.02 in 10.0 mi Calm Calm - N/A   Clear
10:55 PM 52.9 °F 39.2 °F 60% 30.02 in 10.0 mi Calm Calm - N/A   Clear
11:15 PM 52.7 °F 38.3 °F 58% 30.03 in 10.0 mi WNW 4.6 mph - N/A   Clear
11:34 PM 52.3 °F 38.7 °F 60% 30.03 in 10.0 mi Calm Calm - N/A   Clear
11:55 PM 52.2 °F 38.5 °F 60% 30.03 in 10.0 mi Calm Calm - N/A   Clear